Flag for Israel Weather past 2 weeks in Rishon LeZion, Israel

Now
64 °F

Partly sunny.


Feels Like: 64 °F
Forecast: 57 / 84 °F
Wind: 5 mph from South

Location: Ben Gurion International Airport


UV Index: 7 (High)

Visibility: N/A


Pressure: 29.86 "Hg

Humidity: 83%

Dew point: 59 °F

Location of Rishon LeZionLocation

Historic Weather in Rishon LeZion

°F

Rishon LeZion temperature yesterday

Maximum temperature yesterday: 82 °F (at 12:50 PM)
Minimum temperature yesterday: 63 °F (at 3:50 AM)
Average temperature yesterday: 72 °F

Past Weeks' High & Low Weather Summary

 TemperatureHumidityPressure
High88 °F (Apr 6, 1:20 PM)88% (Apr 3, 6:50 AM)30.15 "Hg (Apr 3, 6:50 AM)
Low52 °F (Apr 5, 5:50 AM)20% (Apr 6, 11:50 AM)29.80 "Hg (Apr 16, 2:50 AM)
Average67 °F60%29.97 "Hg
* Reported Apr 2 6:20 AM — Apr 17 6:20 AM, Rishon LeZion, Weather by CustomWeather, © 2014

Note: Actual official high and low records may vary slightly from our data, if they occured in-between our weather recording intervals... More about our weather records

Advertising

Historic Weather Conditions — Data for Previous 24 hours

 ConditionsComfort  
Time TempWeatherWind HumidityBarometerVisibility
6:20 AM
Apr 17
64 °FPassing clouds.6 mph78%29.83 "HgN/A
5:50 AM64 °FPassing clouds.7 mph78%29.83 "HgN/A
5:20 AM63 °FPassing clouds.6 mph77%29.83 "HgN/A
4:50 AM63 °FPassing clouds.6 mph77%29.83 "HgN/A
4:20 AM63 °FPassing clouds.5 mph73%29.83 "HgN/A
3:50 AM63 °FPassing clouds.6 mph68%29.83 "HgN/A
3:20 AM63 °FPassing clouds.7 mph68%29.83 "HgN/A
2:50 AM61 °FClear.5 mph72%29.80 "Hg10 mi
2:20 AM63 °FClear.5 mph68%29.80 "Hg10 mi
1:50 AM64 °FClear.1 mph64%29.83 "Hg10 mi
1:20 AM66 °FClear.3 mph64%29.83 "Hg10 mi
12:50 AM66 °FClear.1 mph64%29.83 "Hg10 mi
12:20 AM66 °FClear.5 mph60%29.83 "Hg10 mi
11:50 PM
Apr 16
68 °FPassing clouds.5 mph60%29.83 "HgN/A
11:20 PM70 °FClear.2 mph57%29.83 "Hg10 mi
10:50 PM68 °FClear.6 mph56%29.83 "Hg10 mi
10:20 PM70 °FClear.7 mph53%29.83 "Hg10 mi
9:50 PM70 °FClear.6 mph53%29.83 "Hg10 mi
9:20 PM72 °FClear.6 mph53%29.83 "Hg10 mi
8:50 PM72 °FClear.7 mph53%29.83 "Hg10 mi
8:20 PM72 °FClear.7 mph50%29.83 "Hg10 mi
7:50 PM72 °FSunny.6 mph50%29.83 "Hg10 mi
7:20 PM73 °FSunny.10 mph47%29.83 "Hg10 mi
6:50 PM73 °FSunny.10 mph47%29.83 "Hg10 mi
6:20 PM75 °FSunny.12 mph44%29.83 "Hg10 mi
5:50 PM77 °FSunny.15 mph44%29.83 "Hg10 mi
5:20 PM77 °FSunny.14 mph44%29.83 "Hg10 mi
4:50 PM79 °FSunny.12 mph42%29.83 "Hg10 mi
4:20 PM79 °FSunny.15 mph42%29.83 "Hg10 mi
3:50 PM81 °FSunny.14 mph42%29.83 "Hg10 mi
3:20 PM81 °FSunny.14 mph42%29.83 "Hg10 mi
2:50 PM81 °FSunny.13 mph39%29.83 "Hg10 mi
2:20 PM81 °FSunny.10 mph39%29.86 "Hg10 mi
1:50 PM82 °FSunny.9 mph37%29.86 "Hg10 mi
1:20 PM82 °FPassing clouds.9 mph37%29.89 "HgN/A
12:50 PM82 °FPassing clouds.8 mph35%29.89 "HgN/A
12:20 PM81 °FPassing clouds.8 mph34%29.89 "HgN/A
11:50 AM81 °FPassing clouds.9 mph34%29.89 "HgN/A
11:20 AM81 °FSunny.3 mph34%29.89 "Hg10 mi
10:50 AM79 °FSunny.3 mph39%29.89 "Hg10 mi
10:20 AM77 °FSunny.2 mph44%29.89 "Hg10 mi
9:50 AM73 °FSunny.7 mph50%29.92 "Hg10 mi
9:20 AM73 °FClear.8 mph41%29.89 "Hg6 mi
8:50 AM73 °FClear.7 mph41%29.89 "Hg6 mi
8:20 AM72 °FClear.8 mph44%29.89 "Hg6 mi
7:50 AM68 °FSunny.5 mph53%29.86 "Hg10 mi
7:20 AM64 °FSunny.8 mph56%29.86 "Hg10 mi
Weather by CustomWeather, © 2014

See weather overview